Regional Weather Roundup
Issued by NWS

Home | Current Version | Previous Version | Graphics & Text | Print | Product List | Glossary On
Versions: 1 2 3 4 5 6 7 8 9 10 11 12 13 14 15 16 17 18 19 20 21 22 23 24 25 26 27 28 29 30 31 32 33 34 35 36 37 38 39 40 41 42 43 44 45 46 47 48 49 50
000
ASUS43 KIND 191359
RWRIN

WEATHER ROUNDUP FOR INDIANA
NATIONAL WEATHER SERVICE INDIANAPOLIS IN
1000 AM EDT FRI SEP 19 2014

NOTE: "FAIR" INDICATES FEW OR NO CLOUDS BELOW 12,000 FEET WITH NO
SIGNIFICANT WEATHER AND/OR OBSTRUCTIONS TO VISIBILITY.

* - STATION DOES NOT REPORT WEATHER SUCH AS PRECIPITATION OR FOG.

+ - STATION NOT QUALITY CONTROLLED BY THE NATIONAL WEATHER SERVICE.
    USE DATA WITH CAUTION...ESPECIALLY DEWPOINT AND RELATIVE
    HUMIDITY OBSERVATIONS.

INZ001>003-010>013-019-020-191500-
NORTHWEST INDIANA

CITY           SKY/WX    TMP DP  RH WIND       PRES   REMARKS
GARY /AIRPORT/ MOSUNNY   61  52  72 SE8       30.18R
VALPARAISO     SUNNY     58  52  80 SE8       30.19F

$$

LMZ046-743>745-191500-
SOUTHERN LAKE MICHIGAN

STATION/POSITION TIME  TEMP WIND        PRES
                       AIR  DIR/SP/G
                 (UTC) (F)  (DEG/KT/KT) (MB)
MICHIGAN CITY    1300   56  120/ 12/ 17   N/A

$$

INZ004-005-014>016-021>024-191500-
NORTH CENTRAL INDIANA

CITY           SKY/WX    TMP DP  RH WIND       PRES   REMARKS
ELKHART        SUNNY     55  52  88 SE9G17    30.22S
GOSHEN         SUNNY     58  52  80 SE12      30.22S
SOUTH BEND     SUNNY     58  52  80 SE12      30.22S

$$

INZ006>009-017-018-025>027-191500-
NORTHEAST INDIANA

CITY           SKY/WX    TMP DP  RH WIND       PRES   REMARKS
ANGOLA *+      SUNNY     55  50  82 SE9       30.25R
FORT WAYNE     PTSUNNY   56  53  90 E8        30.24S

$$

INZ028-029-035-036-043>045-051>053-191500-
WEST CENTRAL INDIANA

CITY           SKY/WX    TMP DP  RH WIND       PRES   REMARKS
GREENCASTLE +  SUNNY     57  50  77 SE7       30.19S
LAFAYETTE      SUNNY     57  52  83 SE6       30.19S
TERRE HAUTE    SUNNY     59  51  75 E10       30.17S

$$

INZ030>032-037>040-046>048-054>057-064-065-191500-
CENTRAL INDIANA

CITY           SKY/WX    TMP DP  RH WIND       PRES   REMARKS
ANDERSON       SUNNY     57  54  88 SE12      30.21F
INDIANAPOLIS   MOSUNNY   60  51  72 SE7       30.18S
-EAGLE CREEK   SUNNY     61  50  67 E8        30.18S
KOKOMO *+      SUNNY     55 N/A N/A SE6       30.22R
MT COMFORT *+  SUNNY     61  48  63 SE7       30.19F
SHELBYVILLE    SUNNY     62  52  69 E8        30.19R

$$

INZ033-034-041-042-049-050-058-059-191500-
EAST CENTRAL INDIANA

CITY           SKY/WX    TMP DP  RH WIND       PRES   REMARKS
MUNCIE         SUNNY     58  50  75 SE8       30.20F

$$

INZ060-061-067>069-081>083-085>088-191500-
SOUTHWEST INDIANA

CITY           SKY/WX    TMP DP  RH WIND       PRES   REMARKS
EVANSVILLE     SUNNY     63  52  67 E7        30.12S

$$

INZ062-063-066-070>080-084-089>092-191500-
SOUTH CENTRAL AND SOUTHEAST INDIANA

CITY           SKY/WX    TMP DP  RH WIND       PRES   REMARKS
BLOOMINGTON    SUNNY     60  50  69 SE10      30.17S
SEYMOUR +      SUNNY     63  52  67 E7        30.17

$$




USA.gov is the U.S. government's official web portal to all federal, state and local government web resources and services.